Flag for U.S.A. Weather past 2 weeks in Hampton, Virginia, U.S.A.

Now
50 °F

Clear.


Feels Like: 46 °F
Forecast: 50 / 58 °F
Wind: 12 mph from Northeast

Location: Langley Air Force Base


UV Index: 5 (Moderate)

Visibility: 10 mi


Pressure: 30.25 "Hg

Humidity: 70%

Dew point: 41 °F

Location of HamptonLocation

Historic Weather in Hampton

°F

Hampton temperature yesterday

Maximum temperature yesterday: 54 °F (at 3:58 PM)
Minimum temperature yesterday: 46 °F (at 12:58 AM)
Average temperature yesterday: 49 °F

Past Weeks' High & Low Weather Summary

 TemperatureHumidityPressure
High81 °F (Apr 13, 2:58 PM)100% (Apr 5, 9:03 AM)30.63 "Hg (Apr 5, 9:03 AM)
Low35 °F (Apr 16, 5:58 AM)29% (Apr 10, 12:58 PM)29.57 "Hg (Apr 8, 6:00 AM)
Average57 °F72%30.11 "Hg
* Reported Apr 5 1:58 AM — Apr 20 1:58 AM, Hampton, Weather by CustomWeather, © 2014

Note: Actual official high and low records may vary slightly from our data, if they occured in-between our weather recording intervals... More about our weather records

Advertising

Historic Weather Conditions — Data for Previous 24 hours

 ConditionsComfort  
Time TempWeatherWind HumidityBarometerVisibility
1:58 AM
Apr 20
50 °FClear.8 mph76%30.27 "Hg10 mi
12:58 AM51 °FClear.9 mph76%30.28 "Hg10 mi
11:58 PM
Apr 19
50 °FPassing clouds.7 mph78%30.28 "Hg10 mi
10:58 PM51 °FOvercast.7 mph73%30.29 "Hg10 mi
9:58 PM51 °FOvercast.12 mph78%30.27 "Hg10 mi
8:58 PM51 °FClear.12 mph80%30.26 "Hg10 mi
7:58 PM51 °FSunny.9 mph77%30.25 "Hg10 mi
6:58 PM53 °FScattered clouds.7 mph80%30.26 "Hg10 mi
5:58 PM53 °FPassing clouds.9 mph76%30.25 "Hg10 mi
4:58 PM53 °FScattered clouds.10 mph83%30.24 "Hg9 mi
3:58 PM54 °FScattered clouds.10 mph80%30.25 "Hg9 mi
2:58 PM53 °FBroken clouds.10 mph91%30.26 "Hg9 mi
1:58 PM51 °FDrizzle. Cloudy.10 mph94%30.27 "Hg8 mi
12:58 PM50 °FLight rain. Fog.9 mph98%30.28 "Hg6 mi
11:58 AM49 °FPassing clouds.13 mph97%30.28 "Hg8 mi
10:58 AM49 °FScattered clouds.14 mph99%30.29 "Hg7 mi
10:00 AM48 °FScattered clouds.13 mph100%30.26 "Hg9 mi
9:58 AM48 °FScattered clouds.13 mph99%30.28 "Hg9 mi
8:58 AM47 °FLight rain. Passing clouds.10 mph99%30.28 "Hg7 mi
7:58 AM48 °FLight rain. Fog.10 mph99%30.28 "Hg5 mi
6:58 AM47 °FLight rain. Fog.7 mph99%30.27 "Hg6 mi
5:58 AM47 °FLight rain. Overcast.8 mph99%30.26 "Hg8 mi
4:58 AM47 °FPassing clouds.6 mph99%30.25 "Hg10 mi
3:58 AM46 °FDrizzle. Overcast.5 mph100%30.25 "Hg9 mi
3:04 AM46 °FPassing clouds.5 mph100%30.23 "Hg10 mi
Weather by CustomWeather, © 2014

See weather overview